Weather History for Hulett, WY

Change the Weather History Date:

Sunday, December 15, 2013

  Actual Average (KEFC) Record (KEFC)
Temperature  
Mean Temperature 40 °F -  
Max Temperature 46 °F 38 °F 65 °F (1952)
Min Temperature 33 °F 11 °F -20 °F (1963)
Degree Days  
Heating Degree Days 26    
Moisture  
Dew Point 24 °F    
Average Humidity 53    
Maximum Humidity 65    
Minimum Humidity 37    
Precipitation  
Precipitation 0.00 in - - ()
Sea Level Pressure  
Sea Level Pressure 29.94 in    
Wind  
Wind Speed 11 mph (SW)    
Max Wind Speed 15 mph    
Max Gust Speed 22 mph    
Visibility 10 miles    
Events      
Averages and records for this station are not official NWS values.
T = Trace of Precipitation, MM = Missing Value Source: NWS Daily Summary

Daily Weather History Graph

Daily Weather History Graph

Search for Another Location

Airport:

Trip Planner

Search our weather history database for the weather conditions in past years. The results will help you decide how hot, cold, wet, or windy it might be!

Date:

Astronomy

Dec. 15, 2013 Rise Set
Actual Time 7:28 AM MST 4:18 PM MST
Civil Twilight 6:55 AM MST 4:52 PM MST
Nautical Twilight 6:18 AM MST 5:29 PM MST
Astronomical Twilight 5:42 AM MST 6:04 PM MST
Moon 3:27 PM MST (12/15) 5:44 AM MST (12/15)
Length of Visible Light 9h 57m
Length of Day
8h 49m
Waxing Gibbous, 98% of the Moon is Illuminated
Dec 15
Waxing Gibbous
Dec 17
Full
Dec 25
Last Quarter
Jan 1
New
Jan 7
First Quarter

Hourly Weather History & Observations

Time (MST) Temp. Windchill Dew Point Humidity Pressure Visibility Wind Dir Wind Speed Gust Speed Precip Events Conditions
12:15 AM 37.4 °F 30.3 °F 26.6 °F 65% 30.02 in 10.0 mi SSW 10.4 mph - N/A   Overcast
12:35 AM 39.2 °F 33.6 °F 26.6 °F 61% 30.01 in 10.0 mi WSW 8.1 mph - N/A   Overcast
12:55 AM 39.2 °F 33.0 °F 26.6 °F 61% 29.99 in 10.0 mi SW 9.2 mph - N/A   Overcast
1:15 AM 41.0 °F 34.7 °F 24.8 °F 53% 29.99 in 10.0 mi SW 10.4 mph 18.4 mph N/A   Overcast
1:35 AM 39.2 °F - 24.8 °F 56% 29.98 in 10.0 mi North - - N/A   Mostly Cloudy
1:55 AM 37.4 °F - 26.6 °F 65% 29.97 in 10.0 mi North - - N/A   Overcast
2:15 AM 39.2 °F - 26.6 °F 61% 29.97 in 10.0 mi North - - N/A   Overcast
2:35 AM 39.2 °F 32.0 °F 26.6 °F 61% 29.97 in 10.0 mi SSW 11.5 mph - N/A   Overcast
2:55 AM 39.2 °F - 26.6 °F 61% 29.97 in 10.0 mi North - - N/A   Overcast
3:15 AM 39.2 °F - 26.6 °F 61% 29.97 in 10.0 mi North - - N/A   Overcast
3:35 AM 39.2 °F 31.2 °F 26.6 °F 61% 29.96 in 10.0 mi SW 13.8 mph - N/A   Overcast
3:55 AM 37.4 °F 29.8 °F 26.6 °F 65% 29.95 in 10.0 mi SW 11.5 mph - N/A   Overcast
4:15 AM 37.4 °F 29.3 °F 26.6 °F 65% 29.95 in 10.0 mi SSW 12.7 mph - N/A   Overcast
4:35 AM 37.4 °F 28.5 °F 26.6 °F 65% 29.94 in 10.0 mi SSW 15.0 mph - N/A   Overcast
4:55 AM 39.2 °F 31.6 °F 26.6 °F 61% 29.95 in 10.0 mi SW 12.7 mph - N/A   Overcast
5:15 AM 37.4 °F 29.3 °F 26.6 °F 65% 29.94 in 10.0 mi SSW 12.7 mph - N/A   Overcast
5:35 AM 37.4 °F 29.3 °F 26.6 °F 65% 29.94 in 10.0 mi SW 12.7 mph - N/A   Overcast
5:55 AM 37.4 °F 28.9 °F 26.6 °F 65% 29.93 in 10.0 mi SW 13.8 mph - N/A   Overcast
6:15 AM 37.4 °F 29.3 °F 26.6 °F 65% 29.93 in 10.0 mi SW 12.7 mph - N/A   Overcast
6:35 AM 37.4 °F 28.9 °F 26.6 °F 65% 29.94 in 10.0 mi SW 13.8 mph - N/A   Mostly Cloudy
6:55 AM 37.4 °F 29.3 °F 24.8 °F 60% 29.94 in 10.0 mi SW 12.7 mph - N/A   Scattered Clouds
7:15 AM 37.4 °F 29.3 °F 24.8 °F 60% 29.94 in 10.0 mi SW 12.7 mph - N/A   Clear
7:35 AM 35.6 °F 27.1 °F 24.8 °F 65% 29.94 in 10.0 mi SSW 12.7 mph - N/A   Clear
7:55 AM 35.6 °F 27.5 °F 23.0 °F 60% 29.95 in 10.0 mi SSW 11.5 mph - N/A   Clear
8:15 AM 35.6 °F 28.0 °F 23.0 °F 60% 29.95 in 10.0 mi SSW 10.4 mph - N/A   Clear
8:35 AM 37.4 °F 29.3 °F 23.0 °F 56% 29.95 in 10.0 mi SSW 12.7 mph - N/A   Clear
8:55 AM 37.4 °F 29.8 °F 23.0 °F 56% 29.95 in 10.0 mi SSW 11.5 mph - N/A   Clear
9:15 AM 37.4 °F 29.8 °F 24.8 °F 60% 29.95 in 10.0 mi SSW 11.5 mph - N/A   Clear
9:35 AM 37.4 °F 30.8 °F 24.8 °F 60% 29.96 in 10.0 mi SSW 9.2 mph - N/A   Clear
9:55 AM 41.0 °F 34.3 °F 24.8 °F 53% 29.96 in 10.0 mi SW 11.5 mph - N/A   Clear
10:15 AM 41.0 °F 33.9 °F 24.8 °F 53% 29.96 in 10.0 mi SW 12.7 mph 18.4 mph N/A   Clear
10:35 AM 41.0 °F 34.3 °F 23.0 °F 49% 29.95 in 10.0 mi SW 11.5 mph - N/A   Clear
10:55 AM 42.8 °F 35.8 °F 23.0 °F 46% 29.94 in 10.0 mi SW 13.8 mph 18.4 mph N/A   Clear
11:15 AM 42.8 °F 36.2 °F 23.0 °F 46% 29.94 in 10.0 mi SW 12.7 mph - N/A   Clear
11:35 AM 44.6 °F 38.8 °F 23.0 °F 43% 29.93 in 10.0 mi SW 11.5 mph - N/A   Clear
11:55 AM 44.6 °F 38.4 °F 24.8 °F 46% 29.93 in 10.0 mi WSW 12.7 mph - N/A   Clear
12:15 PM 44.6 °F 38.4 °F 23.0 °F 43% 29.93 in 10.0 mi WSW 12.7 mph 18.4 mph N/A   Clear
12:35 PM 44.6 °F 37.8 °F 23.0 °F 43% 29.93 in 10.0 mi WSW 15.0 mph 21.9 mph N/A   Clear
12:55 PM 44.6 °F 38.4 °F 23.0 °F 43% 29.92 in 10.0 mi WSW 12.7 mph 20.7 mph N/A   Clear
1:15 PM 44.6 °F 38.1 °F 23.0 °F 43% 29.91 in 10.0 mi SW 13.8 mph - N/A   Clear
1:35 PM 44.6 °F 38.4 °F 24.8 °F 46% 29.92 in 10.0 mi WSW 12.7 mph - N/A   Clear
1:55 PM 44.6 °F 39.2 °F 24.8 °F 46% 29.92 in 10.0 mi WSW 10.4 mph - N/A   Clear
2:15 PM 44.6 °F 38.4 °F 23.0 °F 43% 29.91 in 10.0 mi WSW 12.7 mph 17.3 mph N/A   Clear
2:35 PM 44.6 °F 39.7 °F 24.8 °F 46% 29.92 in 10.0 mi WSW 9.2 mph - N/A   Clear
2:55 PM 44.6 °F 39.7 °F 23.0 °F 43% 29.92 in 10.0 mi WSW 9.2 mph - N/A   Clear
3:15 PM 44.6 °F 39.7 °F 23.0 °F 43% 29.92 in 10.0 mi WSW 9.2 mph 16.1 mph N/A   Clear
3:35 PM 44.6 °F 38.8 °F 23.0 °F 43% 29.92 in 10.0 mi WSW 11.5 mph - N/A   Clear
3:55 PM 44.6 °F 39.2 °F 23.0 °F 43% 29.92 in 10.0 mi WSW 10.4 mph - N/A   Clear
4:15 PM 42.8 °F 36.6 °F 23.0 °F 46% 29.92 in 10.0 mi SW 11.5 mph - N/A   Clear
4:35 PM 42.8 °F 37.0 °F 23.0 °F 46% 29.92 in 10.0 mi SW 10.4 mph - N/A   Clear
4:55 PM 42.8 °F 37.0 °F 23.0 °F 46% 29.93 in 10.0 mi SW 10.4 mph 17.3 mph N/A   Clear
5:15 PM 39.2 °F 32.5 °F 24.8 °F 56% 29.93 in 10.0 mi SW 10.4 mph - N/A   Clear
5:35 PM 41.0 °F 34.7 °F 23.0 °F 49% 29.93 in 10.0 mi SW 10.4 mph - N/A   Clear
5:55 PM 42.8 °F 37.0 °F 23.0 °F 46% 29.93 in 10.0 mi WSW 10.4 mph - N/A   Clear
6:15 PM 42.8 °F 37.0 °F 23.0 °F 46% 29.93 in 10.0 mi West 10.4 mph - N/A   Clear
6:35 PM 44.6 °F 39.2 °F 21.2 °F 39% 29.93 in 10.0 mi West 10.4 mph 17.3 mph N/A   Clear
6:55 PM 44.6 °F 38.8 °F 21.2 °F 39% 29.93 in 10.0 mi West 11.5 mph 16.1 mph N/A   Clear
7:15 PM 44.6 °F 39.2 °F 21.2 °F 39% 29.94 in 10.0 mi West 10.4 mph - N/A   Clear
7:35 PM 46.4 °F 41.5 °F 21.2 °F 37% 29.93 in 10.0 mi West 10.4 mph 20.7 mph N/A   Clear
7:55 PM 44.6 °F 38.8 °F 23.0 °F 43% 29.94 in 10.0 mi West 11.5 mph 18.4 mph N/A   Clear
8:15 PM 42.8 °F 37.0 °F 23.0 °F 46% 29.94 in 10.0 mi WSW 10.4 mph - N/A   Clear
8:35 PM 41.0 °F 34.7 °F 23.0 °F 49% 29.93 in 10.0 mi SW 10.4 mph - N/A   Clear
8:55 PM 41.0 °F 33.9 °F 23.0 °F 49% 29.93 in 10.0 mi SW 12.7 mph - N/A   Clear
9:15 PM 39.2 °F 31.6 °F 23.0 °F 52% 29.93 in 10.0 mi SW 12.7 mph - N/A   Clear
9:35 PM 37.4 °F 29.3 °F 23.0 °F 56% 29.93 in 10.0 mi SSW 12.7 mph - N/A   Clear
9:55 PM 37.4 °F 29.8 °F 23.0 °F 56% 29.93 in 10.0 mi SW 11.5 mph - N/A   Clear
10:15 PM 37.4 °F 29.3 °F 21.2 °F 52% 29.93 in 10.0 mi SW 12.7 mph - N/A   Clear
10:35 PM 41.0 °F 33.9 °F 21.2 °F 45% 29.94 in 10.0 mi SW 12.7 mph - N/A   Clear
10:55 PM 39.2 °F 31.6 °F 21.2 °F 49% 29.94 in 10.0 mi SW 12.7 mph - N/A   Clear
11:15 PM 37.4 °F 29.8 °F 21.2 °F 52% 29.94 in 10.0 mi SW 11.5 mph - N/A   Clear
11:35 PM 33.8 °F 25.8 °F 21.2 °F 60% 29.95 in 10.0 mi SW 10.4 mph - N/A   Clear
11:55 PM 35.6 °F 27.5 °F 21.2 °F 56% 29.94 in 10.0 mi SSW 11.5 mph - N/A   Clear